Regional Weather Roundup
Issued by NWS

Home | Current Version | Previous Version | Text Only | Print | Product List | Glossary On
Versions: 1 2 3 4 5 6 7 8 9 10 11 12 13 14 15 16 17 18 19 20 21 22 23 24 25 26 27 28 29 30 31 32 33 34 35 36 37 38 39 40 41 42 43 44 45 46 47 48 49 50
000
ASUS45 KTFX 281704
RWRMT
MONTANA HOURLY WEATHER ROUNDUP
NATIONAL WEATHER SERVICE GREAT FALLS MT
1104 AM MDT SAT MAR 28 2015

NOTE: "FAIR" INDICATES FEW OR NO CLOUDS BELOW 12000 FEET WITH NO
SIGNIFICANT WEATHER AND/OR OBSTRUCTIONS TO VISIBILITY.

* THESE STATIONS ARE NOT UNDER NWS QUALITY CONTROL. THEY DO NOT
   REPORT WEATHER SUCH AS PRECIPITATION OR FOG.

MTZ001>007-043-281800-
WEST OF THE DIVIDE
CITY           SKY/WX    TMP DP  RH WIND       PRES   REMARKS
KALISPELL      CLOUDY    46  36  68 S15G21    29.92R
MISSOULA       CLOUDY    46  30  54 W12G25    30.05R
BUTTE          CLOUDY    43  30  60 NW16G25   29.98R
MULLAN PASS    SNOW      28  28 100 SW9G20    29.99R VSB M1/4 WCI  19
* ESSEX        N/A       41  39  93 N/A        N/A
* LINCOLN      N/A       42  39  89 SW8G22     N/A
* LOOKOUT PASS N/A       34  32  92 SE9G15     N/A   WCI  27
* POLSON       N/A       42  39  89 S3G12      N/A
* RONAN APT    CLOUDY    46  36  68 S6         N/A
* SEELEY LAKE  N/A       40  38  93 SE1G18     N/A
* THOMP F APT  PTSUNNY   48  30  50 S11G18     N/A
$$

MTZ008-052>055-281800-
SOUTHWEST MONTANA
CITY           SKY/WX    TMP DP  RH WIND       PRES   REMARKS
BOZEMAN        PTSUNNY   64  28  26 W23G30    29.76F
DILLON         CLOUDY    48  34  59 W28G37    29.93R
* W YELLOWSTON PTCLDY    50  29  44 SW9G21     N/A
* THREE FORKS  PTCLDY    68  30  24 SW28G37    N/A
* TWIN BRIDGES PTCLDY    57  34  42 W40G54     N/A
* BOULDER HILL N/A       41  27  58 E4G16      N/A
* HOMESTAKE PS N/A       38  30  73 NW14G29    N/A   WCI  30
* MONIDA PASS  N/A       49  29  46 S16G23     N/A
* RAYNOLDS PAS N/A       49  27  43 SE26G34    N/A
* WHITEHALL    N/A       59  28  31 SW16G25    N/A
* WISE RIVER   N/A       36  32  85 W18G56     N/A   WCI  26
$$

MTZ009>010-012-014-046-048-049-054-281800-
EAST SLOPES AND CENTRAL MONTANA
CITY           SKY/WX    TMP DP  RH WIND       PRES   REMARKS
CUT BANK       PTSUNNY   54  34  47 W38G47    29.69R
GREAT FALLS    CLOUDY    55  32  42 W30G40    29.72R
HELENA         PTSUNNY   46  34  63 W41G56    29.87R
MALMSTROM AFB  PTSUNNY   57  34  42 W26G35    29.72R
* DEARBORN     N/A       54  35  49 SE12G23    N/A
* EAST GLACIER N/A       42  34  73 W35G50     N/A
* MONARCH      N/A       56  26  32 W26G34     N/A
* PENDROY      N/A       53  33  47 W32G45     N/A
* ROGERS PASS  N/A       37  33  85 SE19G33    N/A   WCI  27
* SAINT MARY   N/A       42  38  86 SW15G27    N/A
$$

MTZ011-013-016-021-035-040-045-047-050-051-281800-
NORTH CENTRAL MONTANA
CITY           SKY/WX    TMP DP  RH WIND       PRES   REMARKS
HAVRE          CLOUDY    63  39  41 W20G29    29.59R
LEWISTOWN      PTCLDY    72  30  21 SW25G37   29.66F
* N BAR RANCH  SUNNY     68  30  24 SW20G30   29.69F
* CHESTER      N/A       54  40  59 W20G31     N/A
* DENTON       N/A       71  34  26 SW17G30    N/A
* GEYSER       N/A       60  31  33 W32G43     N/A
* JUDITH GAP   N/A       63  36  37 S9         N/A
* LOMA         N/A       64  38  38 W21G33     N/A
$$

MTZ017>020-022>027-061-062-281800-
NORTHEAST MONTANA
CITY           SKY/WX    TMP DP  RH WIND       PRES   REMARKS
GLASGOW        PTSUNNY   61  36  39 SE12      29.57F
GLENDIVE       SUNNY     63  37  38 S15G22    29.67F
JORDAN         PTSUNNY   72  34  25 SW29G37   29.59F
SIDNEY         SUNNY     61  37  41 S17G23    29.64F
WOLF POINT     PTCLDY    63  39  41 W3        29.59F
* BEAVER HILL  N/A       65  34  32 S20G25     N/A
* CIRCLE       N/A       66  41  40 SW9        N/A
* LINDSAY DVD  N/A       70  35  28 SW20       N/A
* NAVAJO       N/A       58  40  51 SW14       N/A
* SACO         N/A       59  39  48 E6         N/A
$$

MTZ028>042-056>058-281800-
SOUTHCENTRAL AND SOUTHEAST MONTANA
CITY           SKY/WX    TMP DP  RH WIND       PRES   REMARKS
BAKER          SUNNY     70  37  30 S10       29.73F
BILLINGS       SUNNY     72  34  25 SW13      29.70F
LIVINGSTON     SUNNY     68  28  22 SW33G48   29.73F
MILES CITY     SUNNY     64  37  37 S9        29.67F
* LAUREL APT   PTCLDY    70  36  29 S13G18     N/A
* ROUNDUP APT  PTCLDY    59  34  39 N/A        N/A
* ALZADA       N/A       69  37  31 SW2        N/A
* HYSHAM       N/A       68  33  27 W7G16      N/A
* LAME DEER    N/A       69  33  26 S11G19     N/A
* REED POINT   N/A       65  37  36 N1         N/A
* ROSCOE HILL  N/A       63  13  14 SW19G35    N/A
$$

REGIONAL REPORTS...DAKOTAS
CITY           SKY/WX    TMP DP  RH WIND       PRES   REMARKS
WILLISTON      SUNNY     61  37  41 S14       29.63F
DICKINSON      SUNNY     63  37  38 S23       29.71F
CROSBY         SUNNY     55  39  55 S21       29.59F
WATFORD CITY   SUNNY     63  37  38 S10       29.64F
BISMARCK       SUNNY     45  34  65 S15       29.85F
GRAND FORKS    PTCLDY    41  27  58 S23G31    29.99F
FARGO          SUNNY     45  27  49 S22       30.04F
BUFFALO SD     SUNNY     63  36  37 S20       29.71F
RAPID CITY     SUNNY     66  36  33 S13       29.84F
$$

REGIONAL REPORTS...WYOMING/IDAHO/WASHINGTON
CITY           SKY/WX    TMP DP  RH WIND       PRES   REMARKS
GILLETTE       SUNNY     72  28  19 SW10      29.83F
SHERIDAN       PTCLDY    73  27  18 W15       29.78F
CODY           SUNNY     68  28  22 W12G21    29.82F
YELLOWSTONE LA PTCLDY    50  25  38 SW8G20    30.04F
SALMON         CLOUDY    43  37  79 S9        30.10R
MULLAN PASS    SNOW      28  28 100 SW9G20    29.99S VSB M1/4 WCI  19
SAND POINT     CLOUDY    45  37  74 SW8       30.01R
SPOKANE        CLOUDY    46  37  71 SW31G40   30.06R

$$




USA.gov is the U.S. government's official web portal to all federal, state and local government web resources and services.